STARLINK-36989

Last updated on Sun Apr 12 2026 00:02:07 GMT+0000 (Coordinated Universal Time)

1 68277U 26055R 26101.50393762 .00168020 00000+0 83685-3 0 9992 2 68277 53.1579 172.6949 0001412 57.3324 302.7835 15.80911797 4877
UTC large
Height (km)
Speed (km/s)
/
Latitude / Longitude
Inclination (degrees)
Orbital Period (minutes)
Azimuth
Elevation
Range (km)
Doppler Factor

Next 0 passes for location: London (51.5072 / 0.1276)

Sorry there are no passes over London.
STARLINK-36989